TimeEDT,TemperatureF,Dew PointF,Humidity,Sea Level PressureIn,VisibilityMPH,Wind Direction,Wind SpeedMPH,Gust SpeedMPH,PrecipitationIn,Events,Conditions,WindDirDegrees,DateUTC
12:53 AM,60.1,51.1,72,30.16,10.0,Calm,Calm,-,N/A,,Clear,0,2013-06-05 04:53:00
1:53 AM,59.0,51.1,75,30.14,10.0,East,3.5,-,N/A,,Clear,90,2013-06-05 05:53:00
2:53 AM,55.9,48.9,77,30.14,10.0,East,3.5,-,N/A,,Clear,80,2013-06-05 06:53:00
3:53 AM,57.0,48.0,72,30.14,10.0,ESE,3.5,-,N/A,,Clear,120,2013-06-05 07:53:00
4:53 AM,55.0,48.9,80,30.17,10.0,NW,3.5,-,N/A,,Clear,320,2013-06-05 08:53:00
5:53 AM,54.0,48.9,83,30.19,10.0,Calm,Calm,-,N/A,,Clear,0,2013-06-05 09:53:00
6:53 AM,57.0,50.0,77,30.20,10.0,ENE,3.5,-,N/A,,Clear,70,2013-06-05 10:53:00
7:53 AM,57.9,51.1,78,30.21,10.0,NW,5.8,-,N/A,,Mostly Cloudy,320,2013-06-05 11:53:00
8:53 AM,62.1,52.0,70,30.21,10.0,North,4.6,-,N/A,,Overcast,360,2013-06-05 12:53:00
9:53 AM,68.0,50.0,52,30.20,10.0,ENE,5.8,-,N/A,,Overcast,70,2013-06-05 13:53:00
10:53 AM,70.0,48.9,47,30.18,10.0,ESE,8.1,-,N/A,,Mostly Cloudy,120,2013-06-05 14:53:00
11:53 AM,73.0,46.9,39,30.17,10.0,South,10.4,-,N/A,,Clear,180,2013-06-05 15:53:00
12:53 PM,73.9,48.0,40,30.15,10.0,SSE,8.1,-,N/A,,Overcast,150,2013-06-05 16:53:00
1:53 PM,75.0,48.0,38,30.12,10.0,SE,8.1,17.3,N/A,,Partly Cloudy,130,2013-06-05 17:53:00
2:53 PM,77.0,52.0,42,30.11,10.0,SSE,12.7,19.6,N/A,,Partly Cloudy,160,2013-06-05 18:53:00
3:53 PM,77.0,52.0,42,30.11,10.0,South,5.8,23.0,N/A,,Scattered Clouds,180,2013-06-05 19:53:00
4:53 PM,77.0,54.0,45,30.11,10.0,SE,10.4,-,N/A,,Overcast,140,2013-06-05 20:53:00
5:53 PM,77.0,53.1,43,30.09,10.0,SE,13.8,-,N/A,,Mostly Cloudy,140,2013-06-05 21:53:00
6:53 PM,75.9,53.1,45,30.06,10.0,SSE,12.7,-,N/A,,Clear,160,2013-06-05 22:53:00
7:53 PM,73.9,54.0,50,30.06,10.0,SE,8.1,-,N/A,,Clear,130,2013-06-05 23:53:00
8:53 PM,72.0,55.0,55,30.07,10.0,ESE,5.8,-,N/A,,Clear,120,2013-06-06 00:53:00
9:53 PM,70.0,55.0,59,30.07,10.0,ESE,5.8,-,N/A,,Clear,120,2013-06-06 01:53:00
10:53 PM,69.1,55.0,61,30.08,10.0,SE,4.6,-,N/A,,Scattered Clouds,140,2013-06-06 02:53:00
11:53 PM,69.1,54.0,58,30.07,10.0,SSE,9.2,-,N/A,,Scattered Clouds,150,2013-06-06 03:53:00